User: anonymous   Login
Location: Unspecified
(0.0000°N, 0.0000°E)
Time: 02:20:54
(UTC+00:00)
Language:

IBEX - Orbit

View from above orbital plane
View from above orbital plane
View from above satellite
View from above satellite

Ground track
Ground track

The orbit data is extracted from the following two-line orbital elements,

1 33401U 08051A   14363.13786836 -.00001441  00000-0  00000+0 0  1211
2 33401 012.2747 139.7224 5699707 004.4907 353.4822 00.11405108  2640
Epoch (UTC): 29 December 2014 03:18:31
Eccentricity: 0.5699707
inclination: 12.2747°
perigee height: 70859 km
apogee height: 275604 km
right ascension of ascending node: 139.7224°
argument of perigee: 4.4907°
revolutions per day: 0.11405108
mean anomaly at epoch: 353.4822°
orbit number at epoch: 264

The dashed part of the orbit path shows where the satellite is in the earth's shadow,  

DLR